Tracking 30923 objects as of 1-Jul-2025
HD Live streaming from Space Station
objects crossing your sky now

SL-8 DEB

Track SL-8 DEB now!
10-day predictions


NORAD ID: 18552
Int'l Code: 1986-086C
Perigee: 801.5 km
Apogee: 840.1 km
Inclination: 82.9 °
Period: 101.2 minutes
Semi major axis: 7191 km
RCS: 0.0125 m2 (small)
Launch date: November 13, 1986
Source: Commonwealth of Independent States (former USSR) (CIS)
Launch site: PLESETSK MISSILE AND SPACE COMPLEX (PKMTR)

Note: This is SATELLITE DEBRIS
Your satellite tracking list
BREEZE-M DEB (TANK)
Track 1 satellite(s)




NASA's NSSDC Master Catalog

Two Line Element Set (TLE):
1 18552U 86086C   25180.64396538  .00001654  00000-0  71838-3 0  9995
2 18552  82.9159  54.6089 0026818 297.3201 122.8957 14.23472052972842
Source of the keplerian elements: AFSPC